DLH03F LFPG-EDDM

Flight info

Callsign DLH03F
Flight time 1h 0m
Altitude 35000
Route LANVI DCT LUPEN T107 ROKIL
Aircraft A320/M-SDE3FGHIRWY/LB1

Departure

Time 2026-05-08 13:41
Airport Charles de Gaulle International Airport (LFPG)

Arrival

Time 2026-05-08 14:41
Airport Munich Airport (EDDM)
Time Latitude Longitude Altitude Speed Heading
2026-05-08 12:26 49.01645 2.53906 354 ft 0 kts 192°
2026-05-08 13:28 49.01658 2.53909 354 ft 3 kts 197°
2026-05-08 13:28 49.01673 2.53918 356 ft 2 kts 200°
2026-05-08 13:28 49.01689 2.53929 361 ft 2 kts 212°
2026-05-08 13:29 49.01702 2.53940 359 ft 2 kts 215°
2026-05-08 13:29 49.01716 2.53955 364 ft 2 kts 223°
2026-05-08 13:29 49.01729 2.53971 361 ft 2 kts 214°
2026-05-08 13:29 49.01743 2.53986 364 ft 2 kts 214°
2026-05-08 13:30 49.01757 2.54000 363 ft 2 kts 214°
2026-05-08 13:30 49.01772 2.54015 357 ft 2 kts 214°
2026-05-08 13:30 49.01786 2.54029 361 ft 3 kts 223°
2026-05-08 13:30 49.01797 2.54050 357 ft 2 kts 240°
2026-05-08 13:31 49.01805 2.54073 364 ft 3 kts 253°
2026-05-08 13:31 49.01807 2.54086 362 ft 0 kts 263°
2026-05-08 13:34 49.01807 2.54078 364 ft 2 kts 263°
2026-05-08 13:34 49.01805 2.54049 364 ft 6 kts 265°
2026-05-08 13:34 49.01801 2.53962 357 ft 10 kts 265°
2026-05-08 13:35 49.01796 2.53865 354 ft 9 kts 265°
2026-05-08 13:35 49.01791 2.53778 356 ft 9 kts 265°
2026-05-08 13:35 49.01784 2.53654 357 ft 13 kts 265°
2026-05-08 13:35 49.01777 2.53526 357 ft 11 kts 265°
2026-05-08 13:36 49.01771 2.53413 354 ft 10 kts 265°
2026-05-08 13:36 49.01764 2.53303 354 ft 13 kts 265°
2026-05-08 13:36 49.01756 2.53140 360 ft 17 kts 265°
2026-05-08 13:36 49.01747 2.52966 354 ft 15 kts 266°
2026-05-08 13:37 49.01740 2.52821 360 ft 11 kts 266°
2026-05-08 13:37 49.01782 2.52757 356 ft 9 kts 352°
2026-05-08 13:37 49.01835 2.52750 355 ft 9 kts 355°
2026-05-08 13:37 49.01915 2.52740 355 ft 14 kts 355°
2026-05-08 13:38 49.01999 2.52730 355 ft 8 kts 355°
2026-05-08 13:38 49.02032 2.52727 355 ft 0 kts 355°
2026-05-08 13:39 49.02042 2.52725 357 ft 3 kts 355°
2026-05-08 13:39 49.02079 2.52721 355 ft 8 kts 356°
2026-05-08 13:39 49.02121 2.52735 356 ft 4 kts 32°
2026-05-08 13:39 49.02144 2.52809 356 ft 11 kts 81°
2026-05-08 13:40 49.02154 2.52986 361 ft 31 kts 86°
2026-05-08 13:40 49.02192 2.53703 357 ft 101 kts 85°
2026-05-08 13:40 49.02263 2.55057 361 ft 153 kts 85°
2026-05-08 13:40 49.02346 2.56812 736 ft 169 kts 86°
2026-05-08 13:41 49.02435 2.58580 1561 ft 167 kts 85°
2026-05-08 13:41 49.02530 2.60352 2269 ft 173 kts 85°
2026-05-08 13:41 49.02637 2.62271 2750 ft 190 kts 85°
2026-05-08 13:41 49.02755 2.64393 3108 ft 214 kts 85°
2026-05-08 13:42 49.02887 2.66782 3547 ft 238 kts 85°
2026-05-08 13:42 49.03028 2.69397 4102 ft 257 kts 85°
2026-05-08 13:42 49.03171 2.72147 4959 ft 263 kts 85°
2026-05-08 13:42 49.03314 2.74946 5873 ft 267 kts 85°
2026-05-08 13:43 49.03451 2.77785 6751 ft 271 kts 86°
2026-05-08 13:43 49.03587 2.80632 7556 ft 276 kts 86°
2026-05-08 13:43 49.03726 2.83579 8352 ft 282 kts 86°
2026-05-08 13:43 49.03867 2.86588 9181 ft 287 kts 86°
2026-05-08 13:44 49.04012 2.89653 10013 ft 292 kts 87°
2026-05-08 13:44 49.04158 2.92806 10524 ft 309 kts 88°
2026-05-08 13:44 49.03959 2.96163 10782 ft 329 kts 105°
2026-05-08 13:44 49.03372 2.99585 11376 ft 338 kts 106°
2026-05-08 13:45 49.02773 3.03074 12107 ft 342 kts 106°
2026-05-08 13:45 49.02171 3.06600 12838 ft 346 kts 106°
2026-05-08 13:45 49.01563 3.10176 13571 ft 350 kts 106°
2026-05-08 13:45 49.00948 3.13784 14240 ft 354 kts 106°
2026-05-08 13:46 49.00330 3.17389 14861 ft 358 kts 106°
2026-05-08 13:46 48.99696 3.21071 15481 ft 362 kts 106°
2026-05-08 13:46 48.99052 3.24798 16106 ft 365 kts 106°
2026-05-08 13:46 48.98403 3.28558 16725 ft 369 kts 106°
2026-05-08 13:47 48.97747 3.32356 17353 ft 373 kts 106°
2026-05-08 13:47 48.97081 3.36187 17974 ft 377 kts 107°
2026-05-08 13:47 48.96405 3.40062 18541 ft 380 kts 107°
2026-05-08 13:47 48.95724 3.43966 19066 ft 384 kts 107°
2026-05-08 13:48 48.95037 3.47904 19597 ft 387 kts 107°
2026-05-08 13:48 48.94345 3.51870 20123 ft 390 kts 107°
2026-05-08 13:48 48.93779 3.55864 20630 ft 394 kts 98°
2026-05-08 13:48 48.93540 3.60032 21138 ft 397 kts 96°
2026-05-08 13:49 48.93324 3.64238 21652 ft 400 kts 96°
2026-05-08 13:49 48.93103 3.68472 22137 ft 403 kts 96°
2026-05-08 13:49 48.92878 3.72739 22630 ft 406 kts 96°
2026-05-08 13:49 48.92648 3.77033 23123 ft 409 kts 96°
2026-05-08 13:50 48.92411 3.81360 23603 ft 412 kts 96°
2026-05-08 13:50 48.92173 3.85715 23997 ft 415 kts 96°
2026-05-08 13:50 48.91930 3.90106 24374 ft 418 kts 96°
2026-05-08 13:50 48.91687 3.94522 24738 ft 421 kts 96°
2026-05-08 13:51 48.91443 3.98978 25106 ft 424 kts 96°
2026-05-08 13:51 48.91194 4.03456 25481 ft 427 kts 96°
2026-05-08 13:51 48.90943 4.07909 25837 ft 430 kts 96°
2026-05-08 13:51 48.90684 4.12446 26202 ft 433 kts 96°
2026-05-08 13:52 48.90418 4.17012 26559 ft 435 kts 97°
2026-05-08 13:52 48.89867 4.21540 26908 ft 437 kts 107°
2026-05-08 13:52 48.88852 4.25888 27254 ft 437 kts 116°
2026-05-08 13:52 48.87436 4.29985 27595 ft 439 kts 121°
2026-05-08 13:53 48.85946 4.34041 27947 ft 441 kts 121°
2026-05-08 13:53 48.84449 4.38123 28294 ft 444 kts 121°
2026-05-08 13:53 48.82944 4.42233 28631 ft 447 kts 121°
2026-05-08 13:53 48.81428 4.46365 28961 ft 449 kts 121°
2026-05-08 13:54 48.79925 4.50455 29299 ft 452 kts 121°
2026-05-08 13:54 48.78387 4.54628 29629 ft 454 kts 121°
2026-05-08 13:54 48.76839 4.58818 29947 ft 457 kts 121°
2026-05-08 13:54 48.75282 4.63023 30231 ft 459 kts 121°
2026-05-08 13:55 48.73715 4.67248 30483 ft 461 kts 121°
2026-05-08 13:55 48.72143 4.71498 30739 ft 463 kts 121°
2026-05-08 13:55 48.69005 4.79981 31229 ft 467 kts 121°
2026-05-08 13:56 48.67412 4.84267 31521 ft 467 kts 121°
2026-05-08 13:56 48.65812 4.88545 31868 ft 467 kts 121°
2026-05-08 13:56 48.64208 4.92817 32200 ft 467 kts 121°
2026-05-08 13:56 48.62605 4.97083 32522 ft 467 kts 121°
2026-05-08 13:57 48.61003 5.01341 32842 ft 467 kts 121°
2026-05-08 13:57 48.59400 5.05606 33165 ft 467 kts 121°
2026-05-08 13:57 48.57801 5.09869 33491 ft 467 kts 121°
2026-05-08 13:57 48.56201 5.14129 33821 ft 467 kts 121°
2026-05-08 13:58 48.54598 5.18388 34135 ft 466 kts 121°
2026-05-08 13:58 48.53015 5.22587 34406 ft 466 kts 121°
2026-05-08 13:58 48.51410 5.26834 34676 ft 466 kts 121°
2026-05-08 13:58 48.49800 5.31077 34936 ft 466 kts 122°
2026-05-08 13:59 48.48189 5.35315 35020 ft 464 kts 122°
2026-05-08 13:59 48.45007 5.43679 35038 ft 458 kts 122°
2026-05-08 14:00 48.41838 5.51977 35040 ft 457 kts 122°
2026-05-08 14:00 48.38665 5.60261 35042 ft 456 kts 122°
2026-05-08 14:01 48.35511 5.68459 35044 ft 456 kts 122°
2026-05-08 14:01 48.32709 5.77004 35050 ft 458 kts 108°
2026-05-08 14:02 48.31746 5.86440 35046 ft 459 kts 89°
2026-05-08 14:02 48.32349 5.95991 35041 ft 459 kts 84°
2026-05-08 14:03 48.33020 6.05535 35040 ft 459 kts 84°
2026-05-08 14:03 48.33675 6.15020 35043 ft 459 kts 84°
2026-05-08 14:04 48.34326 6.24568 35038 ft 459 kts 84°
2026-05-08 14:04 48.34973 6.34121 35032 ft 459 kts 84°
2026-05-08 14:05 48.35615 6.43675 35026 ft 459 kts 84°
2026-05-08 14:05 48.36246 6.53164 35026 ft 459 kts 84°
2026-05-08 14:06 48.36871 6.62719 35025 ft 459 kts 84°
2026-05-08 14:06 48.37483 6.72274 35020 ft 459 kts 84°
2026-05-08 14:07 48.38087 6.81831 35025 ft 459 kts 85°
2026-05-08 14:07 48.38689 6.91381 35029 ft 459 kts 85°
2026-05-08 14:08 48.39279 7.00867 35028 ft 458 kts 85°
2026-05-08 14:08 48.39858 7.10416 35028 ft 458 kts 85°
2026-05-08 14:09 48.40435 7.19958 35028 ft 458 kts 85°
2026-05-08 14:09 48.40997 7.29505 35038 ft 458 kts 85°
2026-05-08 14:10 48.41561 7.39040 35043 ft 457 kts 85°
2026-05-08 14:10 48.42113 7.48507 35043 ft 457 kts 85°
2026-05-08 14:11 48.42654 7.58043 35043 ft 457 kts 86°
2026-05-08 14:11 48.43182 7.67574 35042 ft 457 kts 86°
2026-05-08 14:12 48.43670 7.77107 35014 ft 456 kts 88°
2026-05-08 14:12 48.43935 7.86586 35015 ft 456 kts 89°
2026-05-08 14:13 48.44111 7.96131 35020 ft 456 kts 89°
2026-05-08 14:13 48.44312 8.05674 35021 ft 456 kts 89°
2026-05-08 14:14 48.44547 8.15224 35021 ft 456 kts 89°
2026-05-08 14:14 48.44769 8.24766 35024 ft 456 kts 89°
2026-05-08 14:15 48.44983 8.34236 35030 ft 456 kts 89°
2026-05-08 14:15 48.45185 8.43769 35031 ft 455 kts 89°
2026-05-08 14:16 48.45379 8.53311 35035 ft 455 kts 89°
2026-05-08 14:16 48.45555 8.62834 35033 ft 455 kts 90°
2026-05-08 14:17 48.45732 8.72381 35036 ft 455 kts 90°
2026-05-08 14:17 48.45821 8.77146 34873 ft 454 kts 90°
2026-05-08 14:17 48.45903 8.81815 34555 ft 450 kts 90°
2026-05-08 14:17 48.45981 8.86500 34208 ft 446 kts 90°
2026-05-08 14:18 48.46058 8.91148 33784 ft 442 kts 90°
2026-05-08 14:18 48.46132 8.95753 33342 ft 438 kts 90°
2026-05-08 14:18 48.46205 9.00320 32906 ft 434 kts 90°
2026-05-08 14:18 48.46251 9.04846 32449 ft 430 kts 91°
2026-05-08 14:19 48.46269 9.09339 32002 ft 427 kts 91°
2026-05-08 14:19 48.46270 9.13797 31564 ft 423 kts 92°
2026-05-08 14:19 48.46263 9.18149 31163 ft 420 kts 92°
2026-05-08 14:19 48.46255 9.22527 30759 ft 416 kts 92°
2026-05-08 14:20 48.46249 9.26871 30362 ft 413 kts 92°
2026-05-08 14:20 48.46245 9.31179 29887 ft 410 kts 92°
2026-05-08 14:20 48.46245 9.35441 29458 ft 405 kts 92°
2026-05-08 14:20 48.46250 9.39657 29032 ft 400 kts 92°
2026-05-08 14:21 48.46252 9.43814 28621 ft 395 kts 92°
2026-05-08 14:21 48.46249 9.47932 28222 ft 390 kts 92°
2026-05-08 14:21 48.46244 9.51997 27809 ft 386 kts 92°
2026-05-08 14:21 48.46235 9.55970 27420 ft 383 kts 92°
2026-05-08 14:22 48.46223 9.59957 27021 ft 379 kts 92°
2026-05-08 14:22 48.46212 9.63911 26612 ft 376 kts 92°
2026-05-08 14:22 48.46202 9.67834 26213 ft 373 kts 92°
2026-05-08 14:22 48.46194 9.71728 25808 ft 371 kts 91°
2026-05-08 14:23 48.46202 9.75606 25384 ft 369 kts 91°
2026-05-08 14:23 48.46220 9.79475 24966 ft 369 kts 91°
2026-05-08 14:23 48.46241 9.83331 24545 ft 368 kts 91°
2026-05-08 14:23 48.46264 9.87181 24098 ft 368 kts 91°
2026-05-08 14:24 48.46283 9.90968 23738 ft 365 kts 91°
2026-05-08 14:24 48.46298 9.94787 23242 ft 365 kts 91°
2026-05-08 14:24 48.46308 9.98603 22783 ft 363 kts 91°
2026-05-08 14:24 48.46312 10.02399 22342 ft 361 kts 91°
2026-05-08 14:25 48.46313 10.06174 21898 ft 360 kts 91°
2026-05-08 14:25 48.46314 10.09941 21461 ft 359 kts 91°
2026-05-08 14:25 48.46314 10.13694 21028 ft 358 kts 91°
2026-05-08 14:25 48.46315 10.17438 20593 ft 357 kts 91°
2026-05-08 14:26 48.46314 10.21120 20169 ft 356 kts 91°
2026-05-08 14:26 48.46313 10.24847 19743 ft 355 kts 91°
2026-05-08 14:26 48.46312 10.28569 19312 ft 355 kts 91°
2026-05-08 14:26 48.46311 10.32282 18888 ft 354 kts 91°
2026-05-08 14:27 48.46310 10.35985 18547 ft 351 kts 91°
2026-05-08 14:27 48.46305 10.39666 18135 ft 350 kts 91°
2026-05-08 14:27 48.46297 10.43298 17814 ft 345 kts 91°
2026-05-08 14:27 48.46290 10.46913 17403 ft 344 kts 91°
2026-05-08 14:28 48.46281 10.50514 16995 ft 343 kts 91°
2026-05-08 14:28 48.46269 10.54106 16587 ft 343 kts 91°
2026-05-08 14:28 48.46255 10.57646 16194 ft 342 kts 91°
2026-05-08 14:28 48.46346 10.61222 15798 ft 342 kts 83°
2026-05-08 14:29 48.46669 10.64761 15419 ft 341 kts 82°
2026-05-08 14:29 48.46982 10.68295 15034 ft 340 kts 83°
2026-05-08 14:29 48.47287 10.71819 14651 ft 339 kts 83°
2026-05-08 14:29 48.47587 10.75340 14271 ft 339 kts 83°
2026-05-08 14:30 48.47886 10.78860 13881 ft 338 kts 83°
2026-05-08 14:30 48.48186 10.82370 13458 ft 337 kts 83°
2026-05-08 14:30 48.48485 10.85863 13075 ft 336 kts 83°
2026-05-08 14:30 48.48777 10.89301 12689 ft 334 kts 83°
2026-05-08 14:31 48.49072 10.92763 12295 ft 333 kts 83°
2026-05-08 14:31 48.49370 10.96218 11901 ft 332 kts 83°
2026-05-08 14:31 48.49663 10.99676 11492 ft 332 kts 83°
2026-05-08 14:32 48.50236 11.06542 10670 ft 329 kts 83°
2026-05-08 14:32 48.50521 11.09969 10314 ft 328 kts 83°
2026-05-08 14:32 48.50803 11.13359 9888 ft 321 kts 83°
2026-05-08 14:32 48.50886 11.16624 9529 ft 305 kts 98°
2026-05-08 14:33 48.50378 11.19629 8970 ft 297 kts 115°
2026-05-08 14:33 48.49312 11.22244 8623 ft 290 kts 133°
2026-05-08 14:33 48.47879 11.24318 8438 ft 281 kts 141°
2026-05-08 14:33 48.46430 11.26255 8158 ft 278 kts 140°
2026-05-08 14:34 48.44989 11.28196 7784 ft 278 kts 140°
2026-05-08 14:34 48.43553 11.30139 7411 ft 277 kts 139°
2026-05-08 14:34 48.42067 11.31918 7235 ft 268 kts 150°
2026-05-08 14:34 48.40417 11.33083 7105 ft 257 kts 164°
2026-05-08 14:35 48.38706 11.33615 6990 ft 246 kts 175°
2026-05-08 14:35 48.37060 11.34020 6804 ft 242 kts 164°
2026-05-08 14:35 48.35576 11.35125 6708 ft 236 kts 144°
2026-05-08 14:35 48.34431 11.36843 6582 ft 232 kts 126°
2026-05-08 14:36 48.33715 11.38986 6375 ft 228 kts 107°
2026-05-08 14:36 48.33494 11.41294 6143 ft 221 kts 88°
2026-05-08 14:36 48.33646 11.43554 5847 ft 214 kts 82°
2026-05-08 14:36 48.33827 11.45753 5559 ft 210 kts 82°
2026-05-08 14:37 48.34001 11.47905 5278 ft 203 kts 82°
2026-05-08 14:37 48.34166 11.49968 5018 ft 197 kts 82°
2026-05-08 14:37 48.34329 11.52003 4757 ft 196 kts 82°
2026-05-08 14:37 48.34490 11.54030 4504 ft 195 kts 81°
2026-05-08 14:38 48.34651 11.56055 4234 ft 196 kts 81°
2026-05-08 14:38 48.34811 11.58075 3962 ft 192 kts 81°
2026-05-08 14:38 48.34966 11.60037 3724 ft 192 kts 81°
2026-05-08 14:38 48.35124 11.62029 3478 ft 193 kts 82°
2026-05-08 14:39 48.35283 11.64047 3216 ft 194 kts 81°
2026-05-08 14:39 48.35437 11.66017 2976 ft 184 kts 81°
2026-05-08 14:39 48.35584 11.67886 2717 ft 175 kts 81°
2026-05-08 14:39 48.35721 11.69642 2475 ft 165 kts 81°
2026-05-08 14:40 48.35853 11.71324 2227 ft 160 kts 81°
2026-05-08 14:40 48.35940 11.72414 2105 ft 157 kts 81°
2026-05-08 14:40 48.36068 11.74035 1876 ft 155 kts 82°
2026-05-08 14:40 48.36193 11.75635 1678 ft 154 kts 82°
2026-05-08 14:41 48.36314 11.77223 1483 ft 150 kts 82°
2026-05-08 14:41 48.36415 11.78573 1479 ft 106 kts 83°
2026-05-08 14:41 48.36479 11.79416 1481 ft 56 kts 83°
2026-05-08 14:41 48.36509 11.79838 1485 ft 27 kts 89°
2026-05-08 14:42 48.36453 11.80181 1471 ft 26 kts 114°
2026-05-08 14:42 48.36414 11.80315 1478 ft 17 kts 113°
2026-05-08 14:42 48.36372 11.80463 1481 ft 7 kts 114°
2026-05-08 14:42 48.36370 11.80472 1480 ft 0 kts 114°
2026-05-08 14:43 48.36367 11.80480 1481 ft 3 kts 114°
2026-05-08 14:44 48.36339 11.80525 1474 ft 8 kts 162°
2026-05-08 14:44 48.36298 11.80496 1480 ft 6 kts 239°
2026-05-08 14:44 48.36286 11.80408 1485 ft 11 kts 262°
2026-05-08 14:44 48.36276 11.80271 1482 ft 15 kts 264°
2026-05-08 14:45 48.36262 11.80095 1482 ft 18 kts 263°
2026-05-08 14:45 48.36248 11.79909 1480 ft 18 kts 263°
2026-05-08 14:45 48.36232 11.79712 1480 ft 20 kts 263°
2026-05-08 14:45 48.36220 11.79551 1480 ft 10 kts 263°
2026-05-08 14:46 48.36187 11.79473 1479 ft 8 kts 204°
2026-05-08 14:46 48.36127 11.79474 1485 ft 11 kts 174°
2026-05-08 14:46 48.36039 11.79488 1479 ft 15 kts 173°
2026-05-08 14:46 48.35924 11.79508 1479 ft 19 kts 173°
2026-05-08 14:47 48.35790 11.79532 1472 ft 20 kts 173°
2026-05-08 14:47 48.35646 11.79557 1485 ft 21 kts 174°
2026-05-08 14:47 48.35507 11.79580 1479 ft 20 kts 173°
2026-05-08 14:47 48.35363 11.79606 1473 ft 21 kts 173°
2026-05-08 14:48 48.35257 11.79624 1485 ft 8 kts 173°
2026-05-08 14:48 48.35237 11.79667 1480 ft 5 kts 87°
2026-05-08 14:48 48.35241 11.79710 1485 ft 4 kts 83°
2026-05-08 14:48 48.35243 11.79744 1475 ft 3 kts 83°
2026-05-08 14:49 48.35245 11.79772 1483 ft 2 kts 83°
2026-05-08 14:49 48.35246 11.79783 1481 ft 0 kts 83°